Location: Fort Wayne
(41.1310°N, 85.1290°W)
Time: 19:33:08
(UTC-04:00)

BREEZE-M DEB (TANK) - Visible Passes

Search period start: 18 April 2015 00:00
Search period end: 28 April 2015 00:00
Orbit: 290 x 13543 km, 49.6° (Epoch: 15 April)

Date Brightness Start Highest point End Pass type
(mag) Time Alt. Az. Time Alt. Az. Time Alt. Az.
18 Apr 8.9 02:07:08 10° SE 02:26:33 14° ESE 02:59:49 10° E visible
18 Apr 7.3 06:00:06 10° SSW 07:22:05 75° SE 07:36:38 10° ENE visible
19 Apr 8.6 03:00:59 10° SSE 04:10:23 35° SE 04:38:46 10° ENE visible
20 Apr 7.9 04:23:01 10° S 05:49:31 57° SE 06:09:41 10° ENE visible
21 Apr 8.8 01:53:46 10° SE 02:31:13 19° ESE 03:06:09 10° ENE visible
21 Apr 7.1 06:02:16 10° SW 07:24:40 81° SE 07:38:38 10° ENE visible
22 Apr 8.5 02:56:14 10° S 04:13:46 40° SE 04:41:19 10° ENE visible
23 Apr 7.7 04:22:03 10° SSW 05:51:58 63° SE 06:11:22 10° ENE visible
24 Apr 8.7 01:43:08 10° SSE 02:34:42 25° ESE 03:09:54 10° ENE visible
24 Apr 7.0 06:04:18 10° SW 07:26:27 87° SE 07:39:54 10° ENE visible
25 Apr 8.3 02:51:57 10° S 04:16:11 46° SE 04:42:53 10° ENE visible
26 Apr 7.6 04:20:59 10° SSW 05:53:34 69° SE 06:12:16 10° ENE visible
27 Apr 8.6 01:34:04 10° SSE 02:37:05 30° SE 03:12:02 10° ENE visible
27 Apr 6.9 06:06:08 10° SW 07:27:26 87° NNW 07:40:27 10° ENE visible
